Simultaneous Nadir Overpasses (SNOs) Predictions

Prediction of SNOs between AURA and NPP Satellite Orbit:

Table of predicted SNOs for the next 14.0 days since TLE Epoch: 9/28/2024
Index Date (AURA) Time (AURA) Lat,Lon (AURA) SZA (AURA ) Date (NPP) Time (NPP) Lat,Lon (NPP) SZA (NPP ) Distance(km) Time Diff (sec)
1 09/28/2024 22:55:56 80.81, 108.07 91.76 09/28/2024 22:54:57 80.81, 108.21 91.77 2.66 59
2 09/28/2024 23:45:15 -80.88, -83.35 88.38 09/28/2024 23:45:38 -80.88, -83.26 88.40 1.49 23
3 10/01/2024 11:49:26 80.81, -85.30 92.69 10/01/2024 11:48:46 80.80, -85.43 92.74 2.36 40
4 10/01/2024 12:38:46 -80.88, 83.32 87.44 10/01/2024 12:39:27 -80.89, 83.46 87.49 2.52 41
5 10/04/2024 00:42:53 80.85, 81.87 93.55 10/04/2024 00:42:33 80.84, 81.88 93.56 0.25 20
6 10/04/2024 01:32:14 -80.89,-109.83 86.54 10/04/2024 01:33:16 -80.89,-109.93 86.57 2.01 62
7 10/06/2024 13:36:19 80.85,-111.46 94.48 10/06/2024 13:36:22 80.84,-111.63 94.50 2.94 3
8 10/09/2024 01:40:22 -80.82,-112.74 84.58 10/09/2024 01:39:27 -80.83,-112.63 84.56 1.95 55
9 10/09/2024 02:29:41 80.89, 55.75 95.32 10/09/2024 02:30:08 80.89, 55.83 95.29 1.50 27
10 10/11/2024 14:33:42 -80.85, 54.36 83.72 10/11/2024 14:33:14 -80.85, 54.36 83.70 0.36 28



Historial Predications of SNOs between AURA and NPP
